Location: Newark
(36.6333°N, 138.1833°E)
Time: 23:51:49
(UTC+00:00)

Hubble Space Telescope - Visible Passes

Search period start: 21 February 2020 00:00
Search period end: 02 March 2020 00:00
Orbit: 536 x 540 km, 28.5° (Epoch: 21 February)

Date Brightness Start Highest point End Pass type
(mag) Time Alt. Az. Time Alt. Az. Time Alt. Az.
21 Feb 3.0 09:13:16 10° SSW 09:15:33 14° SSE 09:17:50 10° SE visible
21 Feb 3.2 10:52:44 10° SW 10:53:54 16° SW 10:53:54 16° SW visible
22 Feb 2.8 09:02:07 10° SSW 09:04:48 17° SSE 09:07:29 10° SE visible
22 Feb 2.8 10:41:59 10° SW 10:43:58 21° SSW 10:43:58 21° SSW visible
23 Feb 2.4 10:31:16 10° WSW 10:34:01 25° SSW 10:34:01 25° SSW visible
24 Feb 2.2 10:20:34 10° WSW 10:24:02 26° S 10:24:04 26° S visible
25 Feb 2.2 10:09:54 10° WSW 10:13:19 25° S 10:14:07 24° SSE visible
26 Feb 2.4 09:59:15 10° WSW 10:02:37 24° S 10:04:11 19° SSE visible
27 Feb 2.6 09:48:39 10° WSW 09:51:54 22° S 09:54:16 14° SSE visible
28 Feb 2.8 09:38:06 10° WSW 09:41:10 20° SSW 09:44:15 10° SE visible
29 Feb 3.0 09:27:36 10° WSW 09:30:26 18° SSW 09:33:17 10° SSE visible
01 Mar 3.2 09:17:11 10° SW 09:19:42 16° SSW 09:22:14 10° SSE visible
